DW7955 Weather Reports


Display with metric or nautical units.
time (UTC)temp
F
wind
direction
speed
MPH
gust
MPH
rain 1hr
in
rain 24hr
in
rain mn
in
humidity
%
barometer
mb
20260507043015 34 188 0.0 0.0 0.00 0.35 0.34 87 1022.4
20260507041523 35 188 0.0 0.0 0.00 0.35 0.34 85 1022.4
20260507040013 36 188 0.0 0.0 0.00 0.35 0.34 84 1022.3
20260507034512 36 188 0.0 0.0 0.00 0.35 0.34 82 1022.3
20260507033012 37 188 0.0 2.0 0.00 0.35 0.34 82 1022.3
20260507031511 37 188 0.0 3.0 0.00 0.35 0.34 80 1022.2
20260507030020 38 196 2.0 5.0 0.00 0.35 0.34 79 1022.2
20260507024514 39 204 4.0 7.0 0.00 0.35 0.34 78 1022.0
20260507023009 39 194 2.0 5.0 0.00 0.35 0.34 77 1022.0
20260507021509 39 176 0.0 4.0 0.00 0.35 0.34 77 1022.0
20260507020011 40 176 1.0 3.0 0.00 0.35 0.34 76 1022.0
20260507014512 40 176 0.0 2.0 0.00 0.35 0.34 72 1022.0
20260507013012 41 176 0.0 4.0 0.00 0.35 0.34 68 1021.9
20260507011508 41 136 2.0 5.0 0.00 0.35 0.34 68 1021.9
20260507010008 41 176 2.0 6.0 0.00 0.41 0.34 66 1021.8
20260507004506 42 144 3.0 4.0 0.00 0.41 0.34 69 1021.7
20260507003005 42 238 1.0 5.0 0.00 0.41 0.34 67 1021.8
20260507001504 42 234 3.0 6.0 0.00 0.41 0.34 70 1021.9
20260507000003 42 187 2.0 6.0 0.00 0.53 0.34 72 1021.9
20260506234601 41 149 1.0 6.0 0.00 0.53 0.34 78 1021.8
20260506233100 41 164 4.0 7.0 0.00 0.53 0.34 81 1021.8
20260506231609 40 248 3.0 5.0 0.00 0.53 0.34 85 1021.8
20260506230106 38 224 0.0 5.0 0.00 0.53 0.34 87 1021.8
20260506224551 38 234 1.0 3.0 0.00 0.53 0.34 90 1021.9
20260506223050 37 229 0.0 3.0 0.02 0.53 0.34 90 1021.9
20260506221608 37 228 2.0 5.0 0.03 0.53 0.34 91 1022.0
20260506220105 36 200 0.0 3.0 0.03 0.53 0.34 92 1022.0
20260506214550 35 92 1.0 5.0 0.03 0.53 0.34 91 1021.9
20260506213103 34 140 3.0 5.0 0.01 0.51 0.32 89 1022.0
20260506211546 36 34 7.0 12.0 0.00 0.50 0.31 83 1021.9
20260506210054 38 133 3.0 6.0 0.00 0.50 0.31 83 1021.5
20260506204543 38 113 1.0 7.0 0.00 0.50 0.31 87 1021.4
20260506203041 37 96 4.0 9.0 0.00 0.50 0.31 88 1021.6
20260506201546 36 87 4.0 8.0 0.01 0.50 0.31 91 1021.7
20260506200040 35 26 1.0 6.0 0.04 0.50 0.31 92 1021.6
20260506194540 35 90 2.0 6.0 0.06 0.50 0.31 94 1021.5
20260506193039 34 79 2.0 4.0 0.06 0.50 0.31 94 1021.8
20260506191538 33 26 1.0 8.0 0.07 0.49 0.30 94 1021.9
20260506190039 33 1 0.0 4.0 0.05 0.46 0.27 93 1021.6
20260506184541 32 1 2.0 5.0 0.04 0.44 0.25 93 1021.4
20260506183036 33 15 2.0 5.0 0.05 0.44 0.25 93 1021.7
20260506181537 33 30 1.0 3.0 0.03 0.42 0.23 93 1021.5
20260506180039 33 42 0.0 3.0 0.03 0.41 0.22 93 1021.4
20260506174536 33 45 2.0 5.0 0.02 0.40 0.21 93 1021.2
20260506173036 33 32 0.0 4.0 0.02 0.39 0.20 93 1021.5
20260506171539 33 27 6.0 12.0 0.04 0.39 0.20 93 1021.1
20260506170027 33 46 10.0 15.0 0.04 0.38 0.19 93 1020.6
20260506164525 33 50 7.0 13.0 0.07 0.38 0.19 93 1020.4
20260506163023 33 33 8.0 15.0 0.07 0.37 0.18 93 1019.8
20260506161521 33 29 8.0 14.0 0.05 0.35 0.16 93 1019.6
20260506160021 33 29 9.0 13.0 0.03 0.33 0.14 93 1019.7
20260506154520 32 15 6.0 11.0 0.01 0.31 0.12 94 1019.5
20260506153017 32 19 3.0 8.0 0.00 0.30 0.11 94 1019.2
20260506151523 32 7 4.0 7.0 0.00 0.30 0.11 94 1019.1
20260506150016 32 356 5.0 8.0 0.00 0.30 0.11 93 1019.3
20260506144513 32 356 4.0 7.0 0.00 0.30 0.11 93 1019.2
20260506143012 32 356 5.0 11.0 0.01 0.30 0.11 93 1018.9
20260506141511 32 5 3.0 10.0 0.01 0.30 0.11 93 1018.9
20260506140017 32 20 4.0 9.0 0.01 0.30 0.11 93 1019.0
20260506134506 32 6 6.0 12.0 0.01 0.30 0.11 93 1018.5
20260506133004 33 42 6.0 10.0 0.00 0.28 0.10 93 1018.3
20260506131506 33 356 5.0 11.0 0.00 0.28 0.10 93 1018.1
20260506124556 32 26 9.0 13.0 0.00 0.28 0.10 92 1017.5
20260506123054 33 16 8.0 14.0 0.00 0.28 0.10 92 1017.1
20260506121556 33 35 8.0 14.0 0.00 0.28 0.10 91 1016.7
20260506120052 33 30 8.0 15.0 0.00 0.28 0.10 91 1016.4
20260506114552 33 36 10.0 17.0 0.00 0.28 0.10 90 1016.4
20260506113043 33 23 13.0 21.0 0.00 0.28 0.10 90 1016.0
20260506111539 33 30 14.0 23.0 0.00 0.28 0.10 90 1015.6
20260506110037 34 28 11.0 23.0 0.00 0.28 0.10 90 1015.4
20260506104537 34 1 12.0 21.0 0.00 0.28 0.10 89 1015.3
20260506103033 35 356 12.0 18.0 0.00 0.28 0.10 88 1015.3
20260506101530 35 32 11.0 15.0 0.00 0.28 0.10 88 1015.2
20260506100027 35 55 9.0 17.0 0.00 0.28 0.10 89 1015.0
20260506094525 35 38 9.0 14.0 0.00 0.28 0.10 91 1014.9
20260506093022 35 17 5.0 11.0 0.01 0.28 0.10 93 1014.8
20260506091522 35 17 7.0 11.0 0.01 0.28 0.10 93 1014.8
20260506090019 35 43 6.0 11.0 0.02 0.28 0.10 93 1014.7
20260506084518 34 32 7.0 12.0 0.04 0.28 0.10 92 1014.6
20260506083018 34 40 5.0 11.0 0.05 0.28 0.09 92 1014.7
20260506081514 34 32 8.0 12.0 0.06 0.28 0.09 92 1014.4
20260506073004 37 66 2.0 5.0 0.04 0.23 0.04 93 1014.2
20260506071501 37 85 3.0 5.0 0.03 0.22 0.03 92 1014.1
20260506070104 37 47 3.0 7.0 0.02 0.21 0.02 92 1014.0
20260506061555 37 43 2.0 5.0 0.01 0.19 0.00 92 1013.6
20260506044547 37 55 5.0 10.0 0.00 0.18 0.18 89 1012.8